Astra 1N

operational
NORAD ID: 37775 Int'l Des: 2011-041 Owner: SESE/SESSA Country: L
HEOCIRCULARGSOGEO

About Astra 1N

Description loading...

Live Position

Loading 3D Globe...

Upcoming Passes

Altitude History

Altitude vs Time

uPlot chart will show altitude changes over time

Two-Line Element Set

1 37775U 11041A 26020.93999891 .00000134 00000-0 00000-0 0 9991
2 37775 0.0564 358.2012 0002190 356.7652 122.9526 1.00274455 43050
Epoch: Jan 20, 2026 • Age: 9 hours

Current Status

Altitude 35788.0 km
Velocity 3.07 km/s
Sub-Earth Point -0.05°S, 19.2°E
Launch Date Aug 6, 2011
Age 14.4 years
Type other

Technical Details

Classification Payload
Mass 5330.00 kg
Dry Mass 3000.00 kg
Total Mass 5330.00 kg
Length 6.50 m
Diameter 2.80 m
Span 39.80 m
Shape Box + 2 Pan
Manufacturer EADSB
Bus Type Eurostar 3000M
Phase Status In Orbit
Owner/State SESE/SESSA/L

Large Constellations

Loading constellations...